SL-12 R/B(2), 11571

Orbit data source: Space-Track

SL-12 R/B(2), 11571 is space debris in GEO originally from a launch on Tue, 20 Sep 1977 UTC launched from the Tyuratam Missile And Space Complex (TTMTR). Debris objects in space refer to the collection of defunct objects orbiting the Earth. Examples of debris include non-operational satellites, rocket bodies, and fragments generated from explosions, collisions, or faulty payload assembly.

Not visible in the next 10 days
Identifier
11571, 1977-092G
Orbit
GEO
Country
Flag of CISCIS
Related business
Manufacturer
NPO Energiya
Mission
Spacecraft
Bus & Motor
BLOK DM, Unknown motor
Mass
2,440 kg wet, 2,440 kg dry
Launch date (UTC)
1977-09-20 (49 years ago)
Launch vehicle
Unknown
Launch site
Tyuratam Missile And Space Complex (TTMTR)
Object type
Payload
Rocket body
Debris
Shape & HBR
Unknown
Radar Cross Section
Large (>1 m²)

Expand to show TLE details & history
Last TLE update: 2 days ago

TLE from 2 days ago
0 SL-12 R/B(2)
1 11571U 77092G   26171.39087632 -.00000075  00000-0  00000+0 0  9997
2 11571   3.5210 269.1124 0010070 185.6457  97.0675  1.01281917122983
Epoch: 2026-06-20T09:22Z
TLE epoch observation values (Epoch: 2026-06-20T09:22:51.714Z)
Latitude
-3.44298°
Longitude
142.64886°
Altitude
35,511.084 km
Speed
3.085 km/s
True Right ascension
12h 47m 52s
True Declination
-3° 26' 22"
Sunlit
Object was in daylight at epoch
Visualization orbit readout
Latitude
Unknown
Longitude
Unknown
Altitude
Unknown
Speed
Unknown
Apparent Right ascension
Unknown
Apparent Declination
Unknown
Sunlit
N/A
Visualization observer readout
Local Sidereal Time
02:17:17
Azimuth
Unknown
Elevation
Unknown
Doppler factor
Unknown
Orbital elements
Apogee altitude
35,549.024 km
Perigee altitude
35,464.668 km
Semi-major axis
41,884.983 km
Eccentricity
0.00101
Inclination
3.521°
RAAN
269.1124°
Arg. of periapsis
185.6457°
True anomaly
97.182°
Mean anomaly
97.0675°
Eccentric anomaly
97.12475°
Mean motion
0.2532 °/min
Orbital period
1,421.83 mins
BSTAR
0
Loading maneuver chart data...
Computing Atmospheric mass density...
Loading historical data...
Loading historical data...
Loading historical data...
Loading historical data...
Loading historical data...
Loading historical data...
Loading historical data...

Documentation

Showing up to 5 results
|